Temp
59 60 63 68 69 52 57 62 54 59 63 62 51 48 49 48 43 49 47 50 51 57 63 67 66 68 73 75 76 77 77 78 77 77 78 79 80 80 80 80 80 80 80 80 81 81 82 81 81 80 79 80 79 78 78 77 77 78 77 77 77 78 77
60 62 61 63 71 64 58 55 60 64 68 65 54 44 45 43 39 40 42 53 50 54 53 64 64 64 70 72 74 76 77 77 76 77 78 79 80 81 81 81 81 81 81 81 82 83 83 82 82 81 80 80 80 80 79 78 78 77 78 78 78 78 77
57 61 61 63 68 72 66 62 69 63 47 50 55 49 41 39 38 36 43 45 50 54 55 56 63 64 67 69 71 73 74 75 76 77 78 79 81 81 81 81 81 81 81 81 81 83 84 83 82 82 82 82 81 81 81 81 79 79 79 80 79 79 79
53 57 57 51 58 67 73 67 66 64 58 56 50 53 42 47 36 39 45 48 51 55 59 62 67 66 68 70 69 71 75 76 77 78 79 79 79 80 81 81 82 82 82 83 83 83 83 83 83 83 83 83 82 82 81 80 81 80 79 79 79 78 79
53 46 53 55 58 56 60 59 56 61 59 57 61 52 52 47 37 36 38 42 45 50 56 66 69 69 69 71 71 72 75 77 79 80 80 79 80 80 82 82 82 82 82 83 84 84 85 85 84 84 83 82 82 82 81 81 79 80 80 80 80 79 79
40 46 54 52 51 50 49 53 56 60 57 51 49 47 55 52 47 37 39 43 42 54 63 69 70 72 73 72 73 74 75 78 78 80 81 80 80 81 82 83 84 83 83 83 84 84 84 84 83 83 84 83 83 82 82 82 82 81 80 80 79 79 79
42 49 55 58 58 57 56 55 54 59 57 51 51 43 45 52 54 49 44 42 50 58 62 68 71 71 73 74 75 75 76 77 79 81 82 82 81 82 83 84 85 85 83 83 83 82 82 83 83 83 83 83 83 82 82 82 82 81 82 81 81 79 79
47 51 55 56 57 55 52 55 56 55 53 56 57 54 47 51 46 50 51 47 54 61 58 65 70 70 72 71 72 74 77 78 79 80 81 80 80 80 83 84 85 85 84 83 81 80 81 81 81 82 83 83 83 83 83 83 82 82 82 82 81 80 79
42 51 51 52 53 53 47 45 49 52 54 53 53 54 49 53 51 56 47 44 55 59 57 61 63 66 69 70 72 73 75 76 77 79 80 81 79 80 81 82 82 83 83 80 79 80 79 80 82 82 82 82 83 82 83 83 82 83 82 82 82 81 80
31 34 38 33 33 40 45 48 49 51 50 49 50 49 50 47 48 51 51 53 59 62 61 66 63 63 64 64 67 71 72 73 75 76 78 78 78 78 79 80 81 81 80 80 79 79 79 81 82 81 81 83 83 83 83 84 83 82 83 83 82 81 80
33 36 34 42 44 42 40 44 46 46 50 52 50 47 43 48 43 50 52 55 61 59 65 66 68 63 66 68 65 67 70 72 74 72 75 78 78 78 79 79 80 79 78 78 79 79 81 82 82 82 83 83 83 82 82 84 84 83 82 82 81 81 81
40 42 42 46 46 41 43 42 43 47 48 49 48 45 46 48 45 50 52 53 56 64 66 65 67 69 65 64 65 68 69 72 75 76 73 78 79 79 79 78 78 77 78 78 78 79 81 82 82 82 83 84 83 82 82 83 84 83 83 82 81 80 80
42 44 44 46 45 45 45 45 45 44 47 48 46 47 51 50 51 51 56 51 55 65 69 70 70 68 69 70 68 70 73 75 75 74 74 76 78 78 78 77 77 77 78 77 78 79 80 81 81 81 82 83 82 82 83 83 84 83 83 82 81 81 80
41 42 43 45 43 44 44 44 45 47 47 49 50 50 52 53 49 53 56 54 58 67 71 67 67 64 67 67 65 64 66 71 71 73 74 77 78 78 78 78 78 78 78 78 78 79 79 80 80 82 81 81 82 82 82 83 83 84 82 81 80 80 80
37 42 44 45 44 44 43 47 49 51 52 51 52 52 53 54 53 56 57 56 57 64 56 61 60 57 58 61 62 66 66 68 70 72 74 76 78 78 78 77 79 78 79 78 78 78 78 79 80 81 81 82 83 84 84 84 83 84 83 81 81 80 79
33 40 42 44 45 45 43 43 47 48 50 48 52 50 52 51 50 51 54 53 58 59 60 59 61 62 62 61 61 62 63 66 69 71 74 75 76 77 78 78 79 78 78 77 77 78 80 81 81 81 80 82 83 83 84 84 85 85 83 82 81 79 80
30 39 41 41 41 43 42 43 47 49 53 53 55 55 55 53 52 49 52 57 55 56 59 58 60 62 62 62 62 63 64 62 66 71 74 76 77 77 77 77 77 79 79 79 79 80 81 82 82 83 83 83 82 83 83 84 85 84 83 82 80 79 80
29 37 39 40 37 35 40 51 54 53 52 51 48 52 53 55 55 51 52 53 57 58 60 59 59 61 62 62 64 65 64 63 62 67 70 75 78 79 79 80 80 79 80 80 81 81 81 82 84 85 84 84 83 85 85 84 84 82 82 81 81 80 79
27 34 37 37 32 38 49 55 56 56 56 55 50 53 56 55 56 55 55 57 58 59 59 62 62 63 65 66 66 67 68 67 64 66 69 69 72 74 76 77 79 78 79 79 79 79 82 83 82 83 82 83 82 84 84 83 83 81 81 81 80 80 79
34 30 29 27 32 46 53 54 55 57 58 55 52 54 56 56 55 54 53 56 60 60 60 61 63 64 66 67 68 68 69 69 68 67 70 70 73 75 76 77 76 76 78 78 80 79 81 82 83 84 83 84 84 84 85 83 83 82 81 80 80 80 79
26 29 29 32 42 45 47 47 48 50 46 48 46 41 51 54 55 53 53 55 61 62 62 62 63 63 66 65 66 71 69 69 70 69 68 72 73 73 73 76 75 75 78 78 79 79 80 82 83 83 84 84 84 84 84 83 82 83 82 80 80 80 80
35 27 26 26 33 35 40 46 51 56 56 55 54 47 49 55 55 55 53 54 59 61 62 63 62 63 65 60 62 67 69 70 70 70 71 72 73 74 74 73 74 75 76 77 79 81 79 80 82 82 83 84 83 81 82 82 82 82 81 80 80 79 80
31 27 23 24 27 34 42 44 49 53 56 54 55 47 46 52 53 54 52 53 56 60 61 62 63 62 59 59 61 65 68 69 70 69 70 72 72 74 75 76 76 76 77 78 79 79 79 79 79 81 83 83 82 80 80 82 82 81 80 80 80 80 80
33 31 26 23 32 30 42 46 49 52 55 56 51 42 43 50 51 53 52 52 55 57 61 62 61 61 58 58 61 66 68 69 70 69 69 70 71 72 74 76 76 76 76 77 77 78 79 78 79 81 82 82 80 79 80 82 82 81 80 80 81 82 82
33 33 30 34 34 45 47 47 50 52 53 52 43 38 43 50 51 53 52 52 55 56 60 60 58 59 61 63 65 67 69 69 68 70 72 72 72 72 73 74 76 75 76 76 76 76 75 76 79 81 82 80 78 78 78 78 79 81 81 80 81 81 81
30 32 30 31 36 44 48 49 51 51 51 41 39 47 53 51 50 52 53 52 55 55 58 60 60 61 64 65 66 67 67 68 68 69 70 71 72 73 74 75 74 73 73 73 73 74 74 77 78 79 78 77 75 75 75 74 74 75 75 76 78 80 80
38 37 34 33 30 42 48 48 50 47 41 41 46 48 52 53 51 51 52 52 53 55 54 60 61 62 63 63 64 66 66 67 68 68 68 68 68 69 70 71 73 74 72 72 72 73 75 76 77 77 77 74 74 74 73 73 74 75 76 75 76 77 79
34 34 33 33 41 44 49 47 39 43 43 47 48 48 46 49 50 50 50 52 53 55 54 55 59 61 62 63 64 65 66 66 68 69 68 68 69 70 71 72 71 72 71 71 71 71 73 74 75 76 75 73 73 72 71 73 74 75 75 75 75 75 76
36 35 39 43 47 48 49 48 47 47 49 50 49 48 47 47 47 50 50 52 53 55 55 55 57 59 61 62 64 63 64 66 66 66 67 67 67 68 68 70 71 71 70 69 70 70 71 71 72 73 74 74 73 71 71 73 73 74 74 75 75 73 73
44 46 48 48 48 49 49 49 50 48 49 50 50 48 46 48 49 49 50 52 53 54 55 53 55 57 59 61 62 64 64 65 65 66 66 67 67 68 69 69 70 70 70 70 69 69 69 70 70 71 72 73 71 70 72 73 73 74 75 75 75 75 74
38 36 45 44 44 47 50 49 51 51 51 49 49 48 48 48 49 50 51 52 54 54 55 54 53 56 59 58 59 62 63 64 64 65 64 65 66 66 66 68 69 68 69 69 68 68 67 68 69 70 70 70 70 71 71 72 72 73 75 75 75 75 74
38 39 44 44 47 50 51 49 47 48 49 50 50 50 50 49 50 51 52 53 54 55 55 54 53 54 57 57 57 59 62 63 63 64 64 64 65 66 66 68 68 68 67 67 67 67 67 67 68 69 69 69 69 69 70 71 71 73 74 75 74 73 73
41 46 46 45 47 49 49 50 50 50 49 48 49 50 50 51 50 51 53 54 55 56 57 57 54 53 55 56 56 58 61 62 63 63 64 64 64 65 66 66 67 66 67 67 66 67 66 67 68 68 68 68 69 68 69 69 69 71 73 74 73 72 72
35 37 39 43 36 37 44 47 48 48 50 50 49 49 50 50 49 50 50 52 55 57 58 56 55 53 54 57 57 57 59 61 62 63 64 64 65 66 66 67 66 67 67 67 66 66 66 66 67 67 67 68 68 69 69 69 69 71 72 71 71 71 71
34 41 44 46 45 44 45 47 49 50 50 49 48 48 48 50 51 51 50 50 52 55 56 56 55 55 54 56 58 57 58 60 62 64 64 64 64 65 66 66 66 67 67 68 67 66 66 67 67 67 67 67 68 68 69 69 69 68 68 69 70 70 71
43 46 46 47 45 42 46 49 50 50 49 48 48 48 49 49 50 51 51 51 51 53 54 56 56 55 55 57 57 56 57 60 62 64 64 65 65 65 66 65 65 66 66 65 65 65 65 66 65 66 67 67 67 68 69 70 69 68 68 69 70 71 71
41 47 47 48 47 48 49 50 51 51 51 50 47 48 49 49 51 53 51 51 53 54 54 54 55 56 55 55 56 56 56 59 62 64 63 64 65 65 65 65 65 65 64 65 65 64 64 65 65 66 66 66 67 68 69 70 70 70 70 70 70 70 72
MSLP
1007.66 1007.82 1007.14 1005.42 1004.86 1010.42 1007.70 1008.10 1010.02 1008.50 1006.62 1008.30 1010.54 1011.42 1011.38 1011.50 1011.38 1010.90 1007.78 1008.06 1008.10 1005.38 1003.74 1001.94 1002.38 1003.34 1002.94 1002.30 1002.30 1002.58 1002.74 1002.86 1003.26 1003.86 1003.94 1004.06 1004.26 1004.46 1004.66 1004.94 1005.06 1005.18 1005.46 1005.86 1006.02 1006.34 1006.82 1007.26 1007.78 1008.02 1008.22 1008.50 1008.94 1009.58 1010.22 1010.74 1011.06 1011.42 1011.78 1012.10 1012.42 1012.74 1013.10
1006.82 1007.38 1007.10 1006.42 1004.58 1004.46 1007.10 1009.26 1007.38 1006.06 1005.10 1006.62 1009.78 1012.90 1011.54 1011.90 1012.98 1011.10 1008.66 1009.06 1008.50 1007.78 1008.42 1002.86 1002.86 1004.10 1003.34 1002.90 1002.54 1002.42 1002.30 1002.58 1003.34 1003.18 1003.18 1003.34 1003.54 1003.62 1003.62 1003.70 1003.90 1004.26 1004.66 1004.98 1005.18 1005.46 1005.74 1006.10 1006.50 1007.18 1007.70 1008.02 1008.58 1009.06 1009.54 1010.26 1010.78 1011.30 1011.50 1011.82 1012.14 1012.42 1012.86
1008.42 1007.46 1006.82 1005.62 1004.42 1003.38 1005.38 1006.34 1004.22 1007.58 1011.18 1011.42 1008.82 1010.46 1013.58 1013.38 1013.34 1012.14 1008.98 1009.14 1007.94 1006.82 1006.22 1004.42 1003.82 1003.90 1003.50 1003.18 1002.54 1002.66 1002.82 1002.90 1002.82 1002.58 1002.54 1002.46 1002.46 1002.90 1003.38 1003.58 1003.82 1004.26 1004.66 1004.82 1005.02 1005.10 1005.06 1005.38 1005.86 1006.42 1007.06 1007.74 1008.30 1008.74 1009.06 1009.50 1010.14 1010.50 1010.90 1011.26 1011.66 1012.02 1012.34
1009.38 1008.18 1007.50 1008.82 1006.62 1004.54 1003.38 1003.74 1005.58 1004.30 1006.34 1008.18 1010.38 1009.14 1009.02 1009.94 1012.42 1012.06 1010.38 1008.94 1008.26 1005.70 1004.38 1003.34 1002.58 1002.78 1002.14 1002.26 1002.58 1002.74 1002.10 1002.10 1001.94 1001.90 1001.98 1002.22 1002.46 1002.58 1002.74 1002.94 1003.18 1003.50 1003.70 1003.94 1004.18 1004.46 1004.90 1005.22 1005.62 1006.06 1006.66 1007.18 1007.78 1008.14 1008.74 1009.22 1009.62 1010.06 1010.62 1011.02 1011.34 1011.82 1012.02
1009.10 1009.06 1007.82 1007.54 1006.66 1007.22 1006.62 1006.58 1007.10 1006.26 1006.06 1005.34 1006.02 1007.30 1008.26 1009.58 1011.02 1010.94 1010.70 1010.22 1006.94 1004.06 1002.62 1001.82 1000.98 1001.50 1001.66 1001.34 1001.46 1001.66 1001.54 1001.22 1000.94 1000.78 1001.10 1001.46 1001.66 1001.86 1001.90 1001.98 1002.38 1002.74 1003.02 1003.30 1003.50 1003.66 1003.98 1004.46 1005.14 1005.90 1006.42 1006.86 1007.22 1007.78 1008.34 1008.70 1009.38 1009.86 1010.30 1010.54 1010.98 1011.38 1011.74
1011.30 1009.90 1008.14 1008.98 1009.54 1009.98 1010.22 1008.62 1007.26 1006.22 1007.14 1008.22 1009.74 1010.26 1006.86 1007.22 1009.02 1010.22 1010.22 1009.90 1006.30 1002.10 1002.38 1000.90 1000.46 999.90 1000.18 1000.66 1000.42 1000.66 1000.66 1000.46 1000.34 1000.34 1000.38 1000.50 1001.06 1000.94 1000.90 1001.06 1001.38 1001.82 1002.18 1002.46 1002.74 1003.26 1003.82 1004.66 1005.26 1005.70 1005.82 1006.34 1006.94 1007.34 1007.62 1008.18 1008.78 1009.30 1009.74 1010.26 1010.62 1010.98 1011.34
1011.62 1009.78 1008.14 1007.94 1008.46 1008.78 1008.78 1008.90 1008.54 1006.02 1005.86 1005.94 1007.74 1010.34 1008.74 1007.30 1006.94 1006.78 1007.62 1009.02 1006.50 1001.14 1000.78 1000.50 999.78 1000.06 999.94 999.58 999.70 999.86 999.78 999.74 999.58 999.46 999.34 999.58 999.78 1000.10 1000.22 1000.46 1000.70 1000.98 1001.38 1001.78 1002.34 1003.02 1003.58 1003.94 1004.22 1004.66 1005.30 1005.82 1006.18 1006.62 1007.18 1007.66 1008.22 1008.70 1008.98 1009.42 1009.90 1010.42 1010.94
1010.38 1008.90 1008.06 1007.94 1007.82 1008.14 1008.90 1008.06 1008.38 1008.66 1008.10 1007.26 1006.38 1005.98 1006.22 1007.18 1007.34 1008.30 1007.94 1008.90 1005.30 1000.66 1000.42 1000.42 999.98 999.46 999.50 999.74 999.82 999.34 999.18 999.06 998.98 998.90 999.02 999.34 999.70 999.70 999.74 999.82 1000.06 1000.34 1000.82 1001.50 1002.34 1003.10 1003.50 1003.78 1004.22 1004.62 1004.86 1005.26 1005.78 1006.26 1006.62 1007.10 1007.74 1008.10 1008.58 1009.02 1009.54 1010.14 1010.62
1009.10 1007.38 1007.18 1008.18 1008.34 1009.18 1010.90 1011.54 1010.54 1009.66 1009.22 1008.94 1008.66 1006.18 1006.54 1006.46 1006.26 1006.10 1008.02 1009.22 1005.58 1001.70 1001.26 1000.06 1000.70 1000.46 1000.22 999.94 999.70 999.66 999.46 999.06 998.94 998.82 998.66 998.74 998.86 999.18 999.58 999.86 1000.02 1000.34 1001.06 1001.90 1002.34 1002.58 1002.94 1003.26 1003.58 1003.98 1004.46 1004.90 1005.30 1005.78 1006.18 1006.62 1007.06 1007.46 1008.02 1008.46 1009.14 1009.70 1010.18
1012.02 1011.18 1009.82 1011.66 1012.54 1012.58 1011.90 1011.06 1010.46 1010.10 1010.46 1010.46 1009.02 1007.22 1006.42 1007.50 1005.54 1005.62 1006.18 1005.78 1003.14 1001.74 1000.98 1000.14 1000.06 1000.02 999.94 999.94 999.86 999.50 999.50 999.10 999.06 998.98 998.78 998.62 998.82 999.14 999.26 999.42 999.86 1000.46 1000.70 1001.02 1001.58 1002.02 1002.42 1002.70 1003.06 1003.54 1003.94 1004.34 1004.78 1005.26 1005.62 1005.90 1006.66 1007.22 1007.66 1008.06 1008.62 1009.22 1009.74
1012.02 1011.50 1013.94 1013.70 1013.46 1013.18 1012.86 1011.18 1011.26 1010.86 1010.50 1010.22 1010.14 1010.26 1010.02 1007.94 1005.90 1005.78 1004.46 1003.70 1002.86 1002.66 1000.86 1000.18 999.86 1000.14 1000.02 999.22 999.14 999.46 999.34 998.94 998.74 998.90 998.70 998.58 998.66 998.70 998.86 999.14 999.38 999.66 1000.38 1000.82 1000.98 1001.34 1001.66 1002.06 1002.46 1002.98 1003.46 1003.94 1004.38 1004.90 1005.38 1005.66 1005.98 1006.58 1007.10 1007.70 1008.26 1008.82 1009.30
1012.90 1012.62 1012.74 1012.54 1013.02 1013.34 1012.62 1012.70 1011.14 1010.30 1010.54 1010.38 1010.74 1010.86 1008.78 1005.90 1005.78 1006.46 1003.66 1002.74 1003.34 1001.78 1001.34 1000.90 1000.18 999.66 999.94 1000.06 999.18 998.46 998.46 998.42 998.34 998.22 998.58 998.46 998.38 998.22 998.46 998.90 999.38 999.86 999.90 1000.18 1000.66 1001.02 1001.38 1001.78 1002.18 1002.66 1003.02 1003.38 1003.82 1004.38 1004.98 1005.30 1005.70 1006.26 1006.78 1007.30 1007.90 1008.42 1008.90
1012.98 1012.62 1012.50 1012.42 1012.50 1012.54 1012.22 1011.94 1011.50 1011.14 1009.90 1010.02 1010.38 1009.30 1008.30 1008.06 1007.10 1005.86 1003.22 1002.30 1002.74 1000.54 999.94 999.78 999.78 999.50 999.22 998.74 998.66 998.02 997.54 997.62 997.70 997.90 998.38 998.58 998.34 998.18 998.46 998.66 998.98 999.26 999.70 1000.02 1000.30 1000.62 1000.94 1001.34 1002.02 1002.46 1002.90 1003.34 1003.78 1004.26 1004.62 1004.98 1005.34 1005.78 1006.18 1006.90 1007.50 1008.02 1008.50
1013.02 1012.58 1012.62 1012.34 1012.46 1012.22 1012.06 1011.58 1011.02 1010.26 1010.02 1009.22 1008.62 1008.30 1007.82 1007.66 1007.26 1005.70 1003.82 1001.78 1001.10 999.54 999.10 999.54 999.62 999.02 998.46 998.14 998.30 998.74 998.70 998.06 997.78 998.10 998.10 997.98 997.70 997.78 998.06 998.18 998.34 998.58 998.82 999.22 999.62 1000.06 1000.66 1001.18 1001.62 1002.14 1002.58 1003.02 1003.34 1003.78 1004.22 1004.54 1005.02 1005.30 1005.86 1006.58 1007.18 1007.66 1008.14
1013.10 1012.18 1011.82 1011.62 1011.74 1011.82 1011.58 1010.22 1009.62 1009.06 1008.54 1008.22 1007.70 1007.46 1006.50 1006.38 1006.46 1005.62 1004.62 1003.50 1002.02 999.86 1000.94 1000.22 1000.10 1000.14 1000.02 999.78 999.46 998.98 998.82 998.58 998.10 997.74 997.54 997.26 997.10 997.14 997.30 997.46 997.70 997.94 998.26 998.74 999.38 999.94 1000.38 1000.70 1001.06 1001.46 1001.82 1002.18 1002.62 1003.18 1003.70 1004.18 1004.62 1004.86 1005.38 1006.18 1006.74 1007.22 1007.70
1012.74 1011.66 1011.62 1011.30 1011.30 1011.38 1011.34 1010.54 1009.42 1009.10 1008.70 1008.38 1006.86 1006.42 1005.98 1005.66 1005.14 1003.74 1003.58 1003.86 1002.34 1000.42 1001.18 1000.94 1000.26 999.82 999.58 999.94 1000.18 999.86 999.50 998.70 997.58 997.26 997.02 996.82 996.70 996.82 997.02 997.10 997.30 997.82 998.26 998.82 999.30 999.66 999.90 1000.18 1000.58 1000.98 1001.54 1001.98 1002.50 1002.94 1003.22 1003.70 1004.10 1004.50 1005.18 1005.82 1006.42 1006.90 1007.22
1013.02 1011.62 1011.86 1011.86 1011.86 1010.30 1009.66 1009.34 1008.74 1008.90 1007.90 1007.74 1006.82 1006.70 1006.34 1006.50 1006.14 1004.66 1003.54 1002.34 1002.66 1003.50 1002.38 1001.46 1000.86 1000.82 1000.62 1000.66 1000.66 1000.38 999.50 998.90 997.90 996.90 996.46 996.22 996.10 996.26 996.46 996.78 997.10 997.38 997.78 998.10 998.38 998.70 999.10 999.58 1000.06 1000.30 1000.66 1001.42 1001.94 1002.18 1002.74 1003.10 1003.66 1004.38 1004.94 1005.46 1006.06 1006.62 1006.90
1012.26 1012.06 1012.34 1012.02 1011.34 1010.46 1009.02 1007.86 1007.86 1007.82 1008.14 1008.34 1008.78 1007.26 1006.98 1006.34 1005.94 1005.74 1005.14 1004.82 1003.78 1003.14 1002.38 1001.94 1001.90 1001.14 1001.22 1001.10 1000.46 999.90 999.82 999.30 997.98 996.74 996.54 996.18 995.82 995.70 995.86 995.98 996.30 996.66 997.02 997.42 997.70 997.90 998.22 998.54 998.82 999.34 999.94 1000.50 1001.10 1001.62 1002.30 1002.94 1003.54 1004.10 1004.70 1005.26 1005.70 1006.18 1006.58
1012.98 1012.46 1012.46 1011.50 1010.98 1008.74 1007.46 1007.14 1006.98 1007.02 1007.22 1007.50 1008.50 1007.38 1006.38 1006.42 1005.94 1005.50 1005.10 1004.34 1003.82 1003.22 1002.54 1001.86 1000.98 1000.50 1000.10 999.94 1000.14 999.62 999.06 998.62 998.42 996.86 995.94 995.98 995.98 996.22 996.30 996.34 996.34 996.50 996.62 997.02 997.54 998.10 998.46 998.78 999.34 999.90 1000.58 1000.98 1001.50 1001.98 1002.30 1002.90 1003.26 1003.90 1004.38 1004.90 1005.38 1005.78 1006.26
1012.98 1012.90 1012.74 1011.54 1008.94 1007.74 1007.22 1006.78 1007.10 1006.82 1006.70 1007.54 1008.02 1006.58 1006.26 1006.34 1006.50 1006.30 1005.98 1004.98 1003.58 1003.02 1002.50 1001.54 1000.82 1000.50 999.66 999.58 999.54 999.30 998.66 998.38 998.22 997.50 995.66 995.50 995.54 995.86 996.06 996.14 996.14 996.42 996.74 997.06 997.30 997.70 997.94 998.62 999.18 999.54 1000.18 1000.42 1001.10 1001.66 1001.90 1002.54 1003.06 1003.50 1004.02 1004.58 1004.98 1005.34 1005.82
1013.94 1012.34 1012.30 1010.62 1008.94 1008.10 1007.86 1007.78 1008.46 1008.42 1009.70 1009.30 1009.90 1010.18 1007.02 1006.78 1006.70 1006.82 1006.50 1005.26 1003.50 1002.78 1002.22 1001.74 1000.82 999.94 999.58 1000.06 999.94 998.98 998.86 998.46 997.90 997.42 996.58 995.18 995.06 995.42 995.74 995.90 996.22 996.14 996.22 996.70 997.18 997.62 998.06 998.38 998.98 999.50 999.86 1000.30 1000.94 1001.58 1002.14 1002.50 1002.86 1003.34 1003.82 1004.38 1004.66 1004.94 1005.34
1012.70 1013.54 1013.14 1011.26 1009.58 1008.50 1008.62 1008.70 1008.58 1007.94 1008.10 1008.46 1008.54 1009.70 1007.74 1006.26 1006.46 1006.70 1006.62 1005.62 1004.10 1003.18 1002.34 1001.54 1000.38 999.74 999.30 1000.82 1001.34 1000.10 999.46 998.78 998.38 997.42 996.58 996.06 995.34 995.18 995.70 996.06 996.26 996.46 996.70 997.02 997.26 997.62 998.22 998.62 998.82 999.14 999.58 1000.14 1000.78 1001.50 1001.98 1002.34 1002.78 1003.22 1003.62 1004.02 1004.18 1004.54 1004.90
1014.54 1013.90 1014.18 1011.14 1008.62 1008.30 1009.66 1009.10 1008.54 1008.02 1007.78 1008.22 1008.10 1009.34 1007.82 1007.34 1007.58 1006.98 1007.10 1006.18 1005.14 1003.98 1003.26 1002.30 1000.50 1000.14 1001.98 1002.86 1002.30 1001.06 1000.18 999.42 998.70 998.22 997.46 996.70 996.22 995.78 995.46 995.70 996.42 996.58 996.74 996.86 997.30 997.74 998.26 998.98 999.06 999.10 999.50 1000.06 1000.78 1001.54 1001.90 1002.26 1002.58 1003.10 1003.46 1003.62 1003.82 1004.14 1004.30
1014.86 1013.90 1013.26 1012.30 1010.54 1009.94 1009.50 1009.18 1008.46 1007.86 1007.50 1007.58 1008.50 1008.62 1007.94 1008.02 1007.78 1007.54 1007.34 1006.74 1005.86 1004.98 1003.58 1002.86 1002.46 1002.22 1002.82 1003.22 1002.54 1001.26 1000.46 999.86 999.14 998.62 998.18 997.58 997.02 996.58 996.22 996.02 996.06 996.54 996.74 997.10 997.70 998.02 998.34 998.62 998.66 998.98 999.42 1000.02 1000.70 1001.30 1001.70 1001.94 1002.54 1002.90 1003.02 1002.98 1002.94 1003.06 1003.42
1013.78 1013.46 1012.82 1011.14 1009.74 1009.02 1009.22 1009.10 1008.30 1007.62 1007.22 1007.82 1008.74 1008.98 1009.50 1008.78 1008.58 1008.02 1007.78 1007.22 1006.26 1005.54 1004.18 1003.58 1003.74 1003.38 1002.74 1002.38 1001.82 1001.02 1000.34 999.94 999.62 998.86 998.22 997.94 997.58 997.46 997.14 997.02 996.62 996.90 997.18 997.38 997.82 998.10 998.34 998.46 998.66 998.86 999.34 1000.10 1000.86 1001.22 1001.58 1001.98 1002.34 1002.30 1002.30 1002.46 1002.70 1002.94 1003.30
1014.30 1013.14 1012.66 1011.10 1009.38 1009.82 1009.66 1008.82 1008.46 1007.42 1006.50 1009.10 1009.82 1009.90 1009.42 1009.42 1009.14 1008.38 1007.98 1007.58 1006.66 1006.06 1005.06 1004.18 1003.94 1003.38 1002.42 1001.78 1001.30 1001.06 1000.82 1000.66 1000.10 999.62 999.14 998.62 998.18 997.86 997.62 997.50 997.50 997.66 997.94 998.18 998.38 998.58 998.54 998.50 998.62 998.94 999.42 1000.30 1000.90 1001.30 1001.74 1002.18 1002.34 1002.22 1002.22 1002.34 1002.54 1002.82 1003.10
1011.06 1011.02 1010.90 1010.38 1010.30 1009.38 1009.78 1008.86 1008.02 1009.10 1009.82 1010.90 1011.58 1010.66 1009.74 1009.70 1009.30 1008.82 1008.18 1007.82 1007.30 1006.58 1006.02 1004.66 1003.98 1003.14 1002.46 1002.14 1001.86 1001.54 1001.34 1000.98 1000.66 1000.30 999.98 999.74 999.54 999.30 998.94 998.62 998.38 998.18 998.54 998.82 998.98 999.02 998.86 998.70 998.82 999.14 999.62 1000.62 1001.18 1001.50 1002.02 1002.34 1002.18 1002.18 1002.22 1002.30 1002.46 1002.70 1002.90
1010.82 1010.62 1010.58 1010.70 1010.38 1011.22 1010.22 1009.30 1010.42 1011.86 1013.10 1012.30 1011.62 1011.30 1010.94 1010.34 1009.94 1009.30 1008.66 1008.02 1007.86 1007.14 1006.66 1005.74 1004.34 1003.38 1002.86 1002.38 1002.18 1001.94 1001.62 1001.38 1000.94 1000.58 1000.46 1000.26 1000.02 999.78 999.46 999.30 999.30 998.98 999.18 999.34 999.50 999.54 999.34 999.30 999.30 999.46 999.82 1000.82 1001.26 1001.62 1002.18 1002.02 1001.98 1002.06 1002.14 1002.26 1002.42 1002.70 1002.86
1012.38 1011.06 1010.90 1011.18 1010.78 1010.74 1010.78 1010.74 1011.30 1011.22 1011.50 1011.46 1011.38 1011.38 1011.38 1010.98 1010.34 1009.82 1009.10 1008.54 1008.18 1007.66 1007.18 1006.34 1004.94 1003.94 1003.42 1003.06 1002.74 1002.82 1002.58 1002.14 1001.86 1001.58 1001.30 1001.14 1000.98 1000.70 1000.42 1000.22 999.94 999.78 999.90 1000.06 1000.06 1000.10 999.98 999.90 999.94 1000.10 1000.14 1000.62 1001.18 1001.70 1001.98 1001.74 1001.90 1001.98 1002.06 1002.10 1002.26 1002.50 1002.70
1011.98 1011.50 1010.70 1011.02 1010.86 1010.62 1010.58 1011.06 1011.14 1011.50 1011.66 1011.30 1011.14 1011.22 1011.26 1010.82 1010.66 1010.22 1009.78 1008.94 1008.42 1007.82 1007.30 1006.78 1005.46 1004.82 1004.26 1003.70 1003.38 1003.10 1002.90 1002.70 1002.30 1001.94 1001.70 1001.50 1001.34 1001.14 1000.90 1000.70 1000.54 1000.58 1000.54 1000.54 1000.58 1000.66 1000.62 1000.46 1000.54 1000.58 1000.70 1000.74 1001.26 1001.78 1001.58 1001.58 1001.58 1001.70 1001.82 1002.06 1002.22 1002.30 1002.30
1011.98 1011.18 1011.46 1011.86 1011.78 1010.98 1010.46 1010.78 1010.90 1011.14 1011.30 1011.34 1011.22 1011.22 1011.14 1010.82 1010.38 1009.86 1009.58 1009.30 1008.46 1007.98 1007.42 1007.06 1006.50 1005.50 1004.58 1004.38 1004.14 1003.70 1003.42 1003.26 1003.02 1002.74 1002.54 1002.34 1002.22 1002.10 1001.82 1001.54 1001.18 1001.18 1001.30 1001.42 1001.42 1001.18 1001.22 1001.18 1001.10 1001.18 1001.26 1001.26 1001.38 1001.38 1001.46 1001.46 1001.46 1001.50 1001.62 1001.74 1002.06 1002.18 1002.18
1012.26 1011.50 1011.86 1012.42 1011.66 1010.34 1010.26 1010.74 1011.06 1011.34 1011.34 1011.14 1011.02 1011.06 1010.94 1010.62 1010.10 1009.86 1009.50 1009.06 1008.10 1007.30 1006.78 1006.70 1006.42 1005.90 1005.14 1004.98 1004.98 1004.66 1004.14 1003.90 1003.54 1003.22 1003.02 1002.86 1002.62 1002.38 1002.18 1001.90 1001.74 1001.86 1002.06 1002.30 1002.14 1001.90 1001.74 1001.58 1001.42 1001.38 1001.38 1001.42 1001.38 1001.34 1001.38 1001.46 1001.46 1001.42 1001.50 1001.58 1001.58 1001.86 1002.02
1012.78 1011.62 1011.90 1012.46 1011.70 1010.78 1010.86 1010.82 1010.78 1011.02 1011.14 1011.22 1010.94 1010.90 1010.82 1010.46 1010.02 1009.34 1008.94 1008.90 1008.22 1007.34 1006.94 1006.74 1006.50 1006.14 1005.66 1005.54 1005.62 1005.26 1004.66 1004.30 1004.02 1003.78 1003.50 1003.26 1003.10 1002.90 1002.74 1002.58 1002.38 1002.62 1002.66 1002.70 1002.62 1002.34 1002.14 1001.82 1001.54 1001.38 1001.38 1001.38 1001.38 1001.38 1001.42 1001.42 1001.42 1001.42 1001.58 1001.62 1001.66 1001.70 1001.86
1013.82 1013.50 1013.50 1013.46 1014.02 1012.78 1011.38 1011.14 1011.14 1011.26 1011.06 1011.10 1010.98 1010.74 1010.78 1010.66 1010.26 1009.70 1009.38 1008.86 1008.26 1007.58 1007.14 1007.06 1006.82 1006.62 1006.06 1005.78 1005.86 1005.78 1005.22 1004.70 1004.30 1003.94 1003.74 1003.54 1003.34 1003.14 1003.02 1002.86 1002.78 1002.78 1002.82 1002.82 1002.78 1002.58 1002.26 1001.90 1001.62 1001.58 1001.62 1001.62 1001.58 1001.50 1001.46 1001.46 1001.42 1001.46 1001.54 1001.62 1001.66 1001.62 1001.66
1014.22 1013.70 1013.54 1013.22 1013.26 1012.90 1012.10 1011.50 1011.10 1011.10 1011.14 1011.22 1011.14 1010.86 1010.74 1010.66 1010.26 1009.86 1009.66 1009.22 1008.42 1007.82 1007.42 1007.42 1007.14 1006.78 1006.34 1006.10 1005.98 1005.94 1005.58 1005.14 1004.54 1004.06 1003.90 1003.86 1003.74 1003.62 1003.38 1003.22 1003.18 1003.10 1002.98 1002.78 1002.62 1002.50 1002.34 1002.02 1001.94 1001.90 1001.86 1001.74 1001.62 1001.58 1001.58 1001.66 1001.74 1001.78 1001.82 1001.86 1001.90 1001.78 1001.70
1013.98 1013.38 1013.14 1012.94 1013.02 1012.86 1011.62 1011.10 1010.86 1010.58 1010.58 1010.90 1010.82 1010.58 1010.54 1010.50 1010.26 1009.70 1009.54 1009.30 1009.14 1008.34 1007.98 1007.62 1007.46 1007.22 1006.86 1006.46 1006.26 1006.02 1005.70 1005.30 1004.74 1004.22 1004.06 1003.94 1003.86 1003.78 1003.66 1003.62 1003.50 1003.30 1003.14 1002.94 1002.78 1002.66 1002.50 1002.38 1002.34 1002.26 1002.14 1002.02 1001.90 1001.78 1001.70 1001.70 1001.70 1001.82 1001.94 1001.86 1001.86 1001.78 1001.66
1014.02 1013.18 1012.90 1012.54 1012.26 1011.74 1011.02 1010.42 1010.22 1009.98 1009.90 1010.18 1010.38 1010.18 1010.06 1010.10 1009.82 1009.46 1009.30 1009.14 1008.82 1008.58 1008.34 1007.98 1007.70 1007.46 1007.18 1006.58 1006.34 1006.10 1006.02 1005.66 1005.06 1004.46 1004.42 1004.18 1003.98 1003.90 1003.82 1003.66 1003.58 1003.50 1003.38 1003.26 1003.14 1003.02 1002.90 1002.86 1002.66 1002.46 1002.30 1002.26 1002.10 1001.90 1001.70 1001.58 1001.50 1001.62 1001.70 1001.70 1001.74 1001.70 1001.62
Wind_Speed
5 5 11 5 11 10 6 8 13 11 7 5 3 3 1 1 1 11 2 3 4 7 6 6 5 5 11 13 14 13 14 14 12 14 15 17 16 15 15 16 16 18 16 16 17 17 16 17 18 19 20 19 20 18 17 18 18 16 17 17 16 15 14
1 10 10 8 10 6 5 9 10 5 5 5 6 7 1 5 8 7 1 10 2 6 11 1 3 5 11 12 12 12 14 13 14 15 16 17 18 18 18 19 19 19 19 20 19 18 20 20 21 20 20 18 17 17 18 19 17 18 17 16 16 15 15
7 12 7 6 6 9 9 8 9 11 5 11 9 4 9 8 7 2 5 0 5 10 8 2 7 9 11 11 10 8 10 11 15 15 17 18 19 18 16 17 16 15 16 17 17 19 20 20 19 19 19 18 16 16 17 19 19 19 18 16 15 13 14
10 8 1 7 6 6 12 7 10 6 5 8 8 10 2 3 4 1 9 1 10 5 6 9 11 12 13 13 10 10 13 14 15 15 15 16 17 17 17 17 17 17 18 19 20 20 20 20 19 18 19 17 20 19 17 17 17 16 16 16 15 15 14
4 4 3 7 3 6 9 6 4 5 5 1 6 0 5 6 4 4 1 6 5 7 6 10 13 12 13 13 14 13 13 14 16 16 15 15 17 17 18 18 18 18 19 19 19 19 19 17 14 14 16 19 19 17 17 18 18 18 17 17 15 14 13
3 8 1 5 5 5 5 4 5 9 9 3 8 9 1 5 4 4 3 11 1 6 4 10 11 12 13 13 14 13 13 14 14 14 14 15 16 18 19 19 19 18 19 19 18 17 14 13 15 17 18 17 18 19 18 18 17 17 18 16 15 14 13
9 15 19 14 11 9 8 3 6 4 2 4 4 9 6 1 7 2 3 2 9 7 6 9 10 8 9 13 14 14 13 14 14 15 16 16 17 18 19 19 18 18 18 18 18 18 18 20 20 20 18 18 19 19 18 17 18 18 18 17 16 14 14
11 15 14 8 2 5 2 2 2 7 4 5 6 5 6 6 1 5 8 11 5 3 4 7 7 6 6 5 8 14 13 12 14 15 15 14 14 14 16 16 16 17 16 15 13 15 16 16 15 17 17 17 17 17 18 17 19 19 17 16 15 14 14
6 8 5 3 4 7 4 5 7 5 7 9 10 1 1 5 9 10 7 14 10 4 2 3 3 4 3 5 8 10 11 9 9 11 12 12 14 14 15 16 16 15 12 13 14 16 17 17 17 17 17 17 18 18 17 18 18 18 17 15 15 15 15
7 9 10 2 7 8 10 6 8 8 8 12 11 2 1 8 6 8 9 11 6 2 2 0 3 3 4 4 5 4 7 8 7 6 10 11 12 13 15 16 15 15 16 16 16 16 16 17 17 17 17 17 17 17 18 17 16 16 16 15 16 16 14
7 2 2 3 5 6 5 14 16 14 9 4 3 3 4 10 3 8 7 6 11 4 4 5 6 4 6 6 4 6 7 10 9 6 9 12 12 13 16 16 15 14 13 17 18 18 18 18 17 16 17 17 17 16 17 17 16 16 16 15 15 16 15
10 7 8 8 8 12 13 12 16 16 13 9 7 5 8 2 3 14 2 7 10 15 9 8 9 9 8 6 7 7 6 8 10 10 9 12 14 14 12 12 13 16 18 18 18 18 18 17 16 15 15 16 17 17 17 16 16 15 14 15 16 16 15
7 9 7 7 9 9 11 14 16 17 17 11 10 10 10 7 7 8 1 6 9 17 11 9 11 10 10 12 12 13 13 10 10 10 8 13 17 16 14 14 15 16 17 16 18 18 18 17 17 16 15 15 13 13 14 15 15 17 15 16 16 16 15
7 8 7 10 11 10 10 11 13 13 12 16 13 15 14 14 11 9 11 10 14 15 9 4 1 4 7 6 4 3 5 11 13 11 13 17 18 17 16 16 17 17 18 18 18 18 17 18 18 16 15 15 16 16 16 16 16 15 15 16 16 16 16
5 8 8 8 8 6 10 11 12 12 12 14 15 13 14 9 8 12 17 13 14 4 5 2 2 3 3 3 4 7 8 8 9 12 16 16 17 16 17 17 18 17 18 17 16 16 17 18 19 18 17 17 16 16 15 16 16 15 16 15 15 15 16
5 3 1 4 5 9 11 12 8 7 8 9 5 3 3 4 6 4 6 8 13 6 14 5 4 6 8 7 9 9 10 8 8 12 13 14 14 14 15 16 16 15 15 15 16 18 19 19 18 17 15 15 15 16 16 16 16 14 15 15 15 15 14
5 5 1 9 12 5 4 5 3 6 5 8 6 4 9 6 2 2 8 10 3 11 11 5 6 6 8 9 9 10 12 10 8 10 12 13 13 14 15 15 16 17 17 18 19 20 18 18 18 18 17 16 17 17 16 15 14 15 15 15 14 14 14
4 5 6 8 0 6 6 5 2 1 3 6 10 5 7 9 5 3 3 6 10 10 9 3 3 7 7 4 6 4 6 10 10 6 5 8 11 14 15 17 18 17 15 15 17 19 20 20 20 18 17 18 15 13 13 12 15 14 14 14 14 14 13
5 5 6 1 6 6 7 6 7 9 3 5 13 9 11 11 13 14 11 10 10 11 8 5 1 3 2 3 8 12 12 10 8 7 6 6 6 7 8 11 12 14 16 16 14 13 13 13 11 10 9 8 10 11 13 14 14 14 14 14 14 14 14
2 4 1 3 4 1 2 5 8 8 5 6 15 3 11 13 15 13 11 14 12 9 9 10 8 5 4 1 6 13 14 14 11 8 5 6 7 9 9 11 11 12 13 14 16 15 12 13 13 13 13 12 13 13 13 13 13 14 14 14 15 14 14
3 4 2 7 6 2 2 2 6 9 5 9 7 6 4 11 13 15 13 15 12 12 11 10 9 6 2 6 10 15 17 17 14 10 6 4 7 7 5 6 7 6 8 10 11 11 12 13 13 13 12 12 12 12 13 12 13 14 14 14 14 14 14
2 1 5 3 1 6 3 2 4 3 3 7 9 3 5 12 18 16 16 14 14 13 13 12 10 4 5 10 8 13 17 16 15 13 9 5 6 10 9 8 9 9 9 10 10 12 12 12 11 11 13 13 13 13 13 12 13 13 14 14 14 13 14
4 2 1 3 3 2 2 9 11 9 6 9 2 4 1 8 14 17 16 16 17 13 12 13 6 3 6 5 7 11 14 14 13 12 10 8 6 6 12 14 12 12 12 13 13 12 12 12 10 12 13 14 13 12 11 12 12 13 13 13 13 14 14
4 3 2 4 4 3 5 12 12 12 9 3 5 3 2 11 16 16 17 16 17 16 12 9 9 7 6 4 6 10 11 11 11 11 11 11 9 9 8 9 12 12 12 13 12 14 14 13 12 13 13 13 13 12 12 12 12 13 13 14 14 14 14
7 7 5 3 4 1 8 12 13 12 6 3 2 1 5 11 15 15 14 14 14 14 10 10 7 6 5 3 4 8 10 13 15 14 12 11 10 10 9 9 9 11 10 11 11 11 9 10 11 12 12 12 11 10 10 10 12 11 10 9 10 10 10
6 6 5 6 3 2 9 12 8 11 3 5 3 3 4 8 12 13 13 13 15 14 11 7 5 5 6 8 9 11 12 10 11 13 14 14 14 12 11 11 9 12 11 12 12 10 7 9 10 10 11 10 9 9 8 8 6 4 5 7 8 9 10
4 4 3 2 2 3 13 13 5 17 6 4 6 8 7 9 13 13 14 12 15 14 13 10 7 8 12 13 12 12 13 12 13 14 14 14 12 12 12 13 10 10 12 12 11 11 8 9 10 11 13 12 10 9 9 6 4 4 4 5 7 8 8
2 2 2 1 3 4 10 10 7 6 3 4 6 6 8 10 10 12 11 11 13 14 13 13 10 11 11 14 14 14 14 14 14 15 14 14 12 12 13 12 11 9 12 11 10 9 9 9 9 10 14 13 11 11 9 4 4 4 5 5 6 7 8
3 2 4 6 5 5 6 7 6 8 6 6 7 7 5 8 11 12 10 12 13 12 13 12 11 13 13 12 12 12 13 12 13 13 13 13 12 11 11 12 10 10 10 11 10 11 10 11 9 9 9 13 11 11 6 5 6 5 5 5 6 7 8
6 4 3 4 6 7 3 6 5 6 6 7 8 9 10 9 10 10 10 13 12 13 11 11 12 12 11 13 12 12 12 12 13 12 12 13 11 11 10 10 10 9 9 10 11 12 11 10 10 8 8 9 12 7 5 5 5 6 6 6 6 5 6
4 5 5 10 11 11 3 3 5 5 4 6 7 10 10 12 12 13 12 12 12 12 9 10 9 11 13 13 12 11 12 12 11 11 10 10 10 10 10 9 8 9 8 8 9 10 11 8 8 7 8 8 7 6 5 4 3 4 5 5 6 5 5
2 5 7 8 12 8 3 3 4 4 5 6 6 6 8 13 14 12 11 13 12 14 12 12 11 12 12 15 15 10 10 10 10 10 10 10 10 9 8 8 8 8 8 7 6 8 8 6 6 7 7 7 6 5 5 4 3 4 4 3 3 3 3
7 5 5 14 12 3 6 3 3 3 6 8 9 8 10 13 16 16 14 11 12 13 13 14 14 14 14 12 12 12 9 9 8 8 8 8 7 7 8 8 7 6 5 6 5 6 6 5 5 7 7 6 6 6 4 4 3 5 4 2 1 1 2
3 6 9 13 9 7 8 10 10 11 11 9 11 11 10 11 14 14 16 14 11 12 12 13 13 14 13 13 12 12 11 10 10 9 9 8 8 8 6 6 7 7 6 5 5 5 5 5 6 6 6 5 5 4 4 3 3 3 2 2 1 2 1
8 11 12 10 9 12 13 12 11 9 7 8 12 14 12 11 11 12 13 13 14 11 13 11 13 14 16 14 12 11 11 11 10 8 8 7 6 6 6 7 7 6 6 5 6 6 5 5 5 5 5 5 5 5 4 2 1 1 2 2 2 0 1
10 10 11 11 11 12 13 13 13 12 9 8 13 13 12 10 11 11 12 10 10 10 9 11 9 12 14 14 11 12 12 13 12 10 9 8 7 6 6 5 6 6 7 7 7 6 5 5 5 4 5 5 4 3 2 2 1 3 3 3 3 2 1
11 13 12 12 13 14 14 14 13 13 11 10 10 13 12 10 10 10 11 10 9 7 7 10 9 10 13 15 10 9 9 11 11 10 9 8 8 8 8 7 7 6 5 5 5 5 5 5 4 5 6 6 5 4 3 3 3 4 3 2 3 1 2
Wind_Direction
315 335 347 245 158 210 182 160 203 206 99 158 238 275 230 116 51 244 93 290 298 302 315 247 213 217 226 221 221 207 209 200 183 192 196 198 201 200 197 199 201 200 195 193 194 191 189 187 189 192 191 190 190 187 188 191 192 190 191 191 191 193 194
335 8 306 282 223 140 128 189 204 122 135 145 178 224 159 206 217 253 259 229 229 164 251 224 164 199 226 224 226 212 209 189 185 196 195 195 198 199 198 199 200 198 194 194 193 192 190 190 191 191 191 190 188 187 188 189 190 190 192 191 193 192 192
300 334 347 306 260 188 191 206 142 169 160 200 201 195 224 213 228 280 280 261 227 203 232 196 198 194 224 231 228 215 213 190 198 199 198 197 197 197 197 201 200 198 198 199 195 195 195 193 189 189 187 185 186 189 190 189 189 191 190 191 193 193 192
311 303 147 224 219 236 217 110 181 165 150 215 171 202 157 125 249 168 267 185 246 207 202 185 203 199 208 214 222 214 210 198 201 201 197 195 194 196 198 200 199 197 198 197 195 195 193 191 189 187 184 184 187 188 187 190 190 188 188 191 191 193 193
342 297 205 217 212 211 208 188 183 188 213 245 184 285 189 195 188 205 231 265 266 251 212 182 195 202 205 199 210 213 212 207 206 203 196 193 193 196 199 199 197 196 199 199 198 196 195 192 185 180 182 187 188 184 188 187 187 188 190 192 190 193 189
303 251 285 64 72 79 16 305 227 190 191 172 169 239 131 178 199 222 188 253 287 270 203 189 200 200 195 206 204 211 214 210 206 205 202 195 194 199 199 199 196 196 198 197 196 191 185 180 181 185 188 185 184 187 188 186 187 188 188 189 191 191 190
266 271 279 278 284 283 270 208 274 301 216 135 174 217 241 141 224 137 180 301 257 246 200 205 205 210 214 203 198 208 212 211 207 205 202 197 197 198 199 199 198 198 196 194 189 182 181 185 187 187 185 186 187 187 184 185 186 189 188 188 189 188 190
260 265 259 289 315 182 233 208 358 347 326 314 266 233 182 187 227 200 241 253 248 257 205 224 225 224 215 221 210 209 212 212 209 206 202 198 200 204 202 200 199 198 195 188 180 181 185 188 186 184 186 187 185 185 186 184 188 187 186 186 186 186 189
339 307 45 90 19 44 58 322 314 302 312 348 328 317 48 213 196 192 173 244 245 266 333 276 308 280 261 214 225 221 221 221 213 213 212 203 201 198 196 196 197 194 184 177 182 183 185 187 187 185 184 185 185 186 184 186 188 185 185 183 183 186 189
192 214 213 164 331 333 312 286 303 319 359 348 357 268 187 222 226 178 209 242 239 218 123 36 285 300 289 255 252 258 241 243 223 210 216 211 202 200 195 196 189 186 183 182 183 184 186 187 185 184 185 184 184 183 186 184 182 182 185 182 184 185 187
220 212 86 196 203 299 312 309 308 300 318 304 267 264 290 244 188 206 232 223 250 200 241 237 248 226 241 272 271 244 239 246 241 205 208 211 208 204 197 190 189 185 180 184 185 184 185 185 185 184 183 182 182 182 182 182 182 181 181 182 184 186 188
248 283 294 301 288 277 276 290 292 297 294 295 279 230 237 42 109 248 166 244 256 253 215 213 230 236 232 232 243 256 259 253 240 225 203 216 214 209 198 187 180 182 186 186 183 183 184 183 182 182 183 182 181 180 181 181 179 179 180 182 184 186 188
251 263 266 277 277 258 266 270 275 283 285 289 269 255 248 278 240 256 209 238 243 260 253 223 213 205 217 222 218 216 220 227 234 234 210 209 214 207 192 184 181 186 185 184 184 183 183 179 177 178 178 180 179 180 180 180 179 181 179 181 184 187 188
271 271 262 261 260 266 262 251 253 252 267 274 265 256 249 239 254 296 277 242 236 249 273 325 308 195 205 228 251 291 246 232 232 222 213 210 208 199 190 185 185 186 187 183 182 180 176 177 177 177 177 177 179 179 180 180 181 181 175 183 184 187 190
268 264 264 256 237 241 269 263 259 270 275 279 266 252 252 239 258 253 258 264 267 258 52 333 300 321 288 298 289 263 255 248 224 211 209 207 201 194 189 186 186 187 184 181 177 174 177 178 178 178 179 180 179 179 178 179 182 179 178 181 184 187 192
295 273 212 250 281 273 251 265 277 282 311 314 318 239 260 183 218 256 271 271 262 326 338 328 359 27 34 10 344 330 315 280 226 208 206 198 194 190 189 187 183 181 177 172 172 178 180 181 179 179 177 176 174 180 179 180 180 174 178 181 184 187 191
260 262 314 317 308 282 229 229 224 270 315 333 322 354 23 13 234 220 225 242 349 307 307 324 8 25 29 20 356 340 323 306 253 223 205 197 191 189 186 182 179 178 177 176 179 180 179 180 180 181 176 174 181 180 177 177 168 174 179 180 181 186 188
258 297 321 299 231 201 210 126 140 76 2 3 343 10 10 6 7 271 224 263 295 316 330 29 65 55 45 17 334 316 315 310 290 253 235 217 204 192 187 182 179 179 178 179 180 179 179 182 182 177 176 181 178 170 165 161 171 174 175 179 182 186 185
276 302 338 177 194 217 134 138 53 30 10 17 343 303 32 12 5 360 346 335 329 318 303 283 153 132 146 10 7 3 351 341 310 239 199 201 192 203 192 183 179 176 177 176 174 174 178 173 162 157 162 147 143 156 164 170 172 171 175 177 182 184 186
312 1 308 194 204 306 225 137 43 33 79 27 351 327 44 19 13 357 345 325 323 319 310 304 289 292 322 296 24 8 356 350 343 303 200 179 170 176 186 183 177 168 168 169 171 173 159 153 162 166 164 158 160 168 168 168 170 173 174 179 185 184 186
172 222 196 239 322 321 31 36 13 23 359 336 340 314 358 37 11 1 341 324 331 336 330 303 290 280 246 38 19 2 353 348 340 339 310 177 153 145 146 155 160 155 149 149 147 141 152 159 158 162 155 157 159 158 165 170 171 174 175 181 187 186 188
188 65 300 323 169 179 188 143 298 4 314 308 282 239 271 18 2 354 348 334 340 347 335 326 303 277 51 21 357 350 346 341 341 343 360 4 120 128 119 114 117 120 119 116 128 137 143 153 156 152 153 153 157 163 169 169 171 176 177 186 188 186 188
39 22 205 245 187 196 101 316 313 319 329 315 297 226 229 20 350 347 346 341 340 343 341 328 328 56 66 17 347 340 338 338 348 358 2 15 38 105 133 134 132 133 136 138 138 137 140 145 152 149 151 151 155 161 166 170 174 177 183 187 188 189 192
230 227 268 273 223 241 330 324 316 315 316 1 134 213 86 351 343 339 340 337 341 331 344 339 22 36 85 22 341 331 336 350 356 5 15 19 35 57 74 102 122 124 125 124 133 144 154 156 152 151 151 156 161 163 169 169 175 182 186 190 192 195 193
226 223 242 285 313 349 342 322 308 316 323 167 147 138 333 335 330 333 332 329 334 328 355 11 39 21 43 49 322 350 7 16 16 16 22 34 37 46 62 81 100 107 110 119 126 132 137 142 149 151 153 153 157 158 159 166 181 185 183 184 189 195 192
218 212 223 227 218 83 330 321 323 339 82 99 100 26 351 332 328 329 336 333 335 338 340 16 15 25 29 38 25 22 19 15 26 29 31 38 45 43 50 58 72 96 94 99 99 98 106 130 137 138 134 131 131 132 135 138 136 131 137 163 178 188 193
185 200 215 243 239 352 353 313 348 25 51 42 344 325 329 344 330 339 340 345 336 343 336 343 350 21 33 30 29 29 25 19 27 30 29 29 33 38 40 51 46 77 91 86 87 94 93 102 118 122 116 115 116 115 109 124 146 140 150 147 160 180 192
213 141 169 165 26 11 345 19 82 85 61 321 338 349 340 341 340 341 337 342 338 335 342 330 349 21 26 30 25 27 26 22 23 28 27 27 32 40 49 53 54 56 79 77 77 68 72 82 96 110 115 115 114 107 114 156 138 145 145 160 150 168 187
28 356 51 37 52 41 43 51 66 64 26 2 1 356 334 335 338 334 332 339 333 338 337 332 356 20 16 27 25 30 25 23 24 27 25 25 26 33 40 46 44 48 65 75 77 70 65 71 74 81 98 110 105 105 145 147 148 141 151 152 152 160 178
304 227 49 49 5 0 56 79 77 64 27 354 360 358 345 340 327 328 329 328 331 330 335 340 2 14 9 17 15 18 18 19 18 18 19 18 17 22 30 35 35 44 53 65 74 77 67 63 70 72 76 92 100 124 144 135 137 137 139 140 142 159 167
337 133 58 23 343 320 248 127 101 91 72 11 358 350 340 326 327 326 326 323 326 329 325 342 351 0 15 17 10 10 19 16 15 16 19 17 17 17 22 22 30 37 39 55 63 75 77 64 74 74 79 77 96 111 105 112 117 132 117 121 128 138 165
345 350 25 10 336 323 89 105 69 11 11 8 357 343 332 319 316 314 315 321 326 335 346 351 352 1 20 21 10 352 8 11 10 11 14 13 13 13 18 21 35 43 41 40 53 67 75 74 75 80 79 78 77 77 74 74 85 103 88 89 104 132 161
306 276 35 0 339 96 102 101 97 340 336 336 329 334 328 320 316 319 323 332 335 338 346 349 352 357 9 17 6 357 350 4 8 10 9 9 15 11 15 13 29 42 44 48 48 61 68 69 72 72 69 64 60 61 53 43 60 89 96 94 101 148 138
25 16 344 344 339 317 306 310 315 319 320 322 315 313 312 313 310 315 319 323 336 337 342 349 347 356 351 0 4 354 345 346 357 7 11 10 12 13 8 30 37 42 40 48 48 47 43 43 58 64 63 59 58 62 56 40 32 74 92 103 54 6 72
319 316 309 306 288 277 272 286 295 288 292 297 297 297 297 296 294 299 305 315 326 339 336 343 344 349 343 342 353 352 352 341 339 356 16 14 10 13 12 35 36 43 37 38 43 41 21 27 45 50 51 38 37 38 40 65 115 160 180 123 104 345 123
287 287 302 304 294 285 285 280 275 274 264 264 272 273 276 273 277 284 290 295 302 317 324 328 339 341 333 327 348 344 348 341 338 354 4 15 23 25 31 39 39 42 33 28 24 15 356 15 25 24 39 24 18 16 48 79 132 151 173 166 148 190 186
315 315 302 296 292 284 276 271 267 264 257 246 253 261 257 258 253 259 272 283 291 301 316 317 332 335 326 321 335 341 342 336 336 352 1 9 15 25 24 28 28 31 30 25 19 4 354 359 18 25 33 11 358 356 13 59 88 85 77 101 121 189 153